Raleigh-Durham Airport, NC

10:06 AM EDT on July 26, 2017 (GMT -0400)
Raleigh-Durham International

Weather History for KRDU - January, 2014

Change the Weather History Date:

Wednesday, January 29, 2014

  Actual Average Record
Temperature  
Mean Temperature 21 °F 42 °F  
Max Temperature 27 °F 52 °F 78 °F (2002)
Min Temperature 14 °F 32 °F 7 °F (1977)
Degree Days  
Heating Degree Days 44 23  
Month to date heating degree days 799 698  
Since 1 July heating degree days 2031 1949  
Cooling Degree Days 0 0  
Month to date cooling degree days 0 0  
Year to date cooling degree days 0 0  
Moisture  
Dew Point 7 °F    
Average Humidity 56    
Maximum Humidity 80    
Minimum Humidity 32    
Precipitation  
Precipitation T in 0.11 in 1.30 in (1917)
Month to date precipitation 1.96 3.27  
Year to date precipitation 1.96 3.27  
Snow  
Snow T in 0.10 in 1.80 in (1966)
Month to date snowfall 1.7 2.7  
Since 1 July snowfall 1.7 3.4  
Snow Depth 1.00 in    
Sea Level Pressure  
Sea Level Pressure 30.29 in    
Wind  
Wind Speed 4 mph (North)    
Max Wind Speed 10 mph    
Max Gust Speed 15 mph    
Visibility 9 miles    
Events Snow    
T = Trace of Precipitation, MM = Missing Value Source: NWS Daily Summary

Daily Weather History Graph

Daily Weather History Graph

Search for Another Location

Airport or City:

Trip Planner

Search our weather history database for the weather conditions in past years. The results will help you decide how hot, cold, wet, or windy it might be!

Date:

Astronomy

Jan. 29, 2014 Rise Set
Actual Time 7:17 AM EST 5:39 PM EST
Civil Twilight 6:50 AM EST 6:06 PM EST
Nautical Twilight 6:19 AM EST 6:37 PM EST
Astronomical Twilight 5:49 AM EST 7:07 PM EST
Moon 5:52 AM EST (1/29) 4:36 PM EST (1/29)
Length of Visible Light 11h 15m
Length of Day
10h 21m
Waning Crescent, 2% of the Moon is Illuminated
Jan 29
Waning Crescent
Jan 30
New
Feb 6
First Quarter
Feb 14
Full
Feb 22
Last Quarter

Hourly Weather History & Observations

Time (EST) Temp. Windchill Dew Point Humidity Pressure Visibility Wind Dir Wind Speed Gust Speed Precip Events Conditions
12:08 AM 17.6 °F 9.3 °F 12.2 °F 79% 30.20 in 3.0 mi NNE 5.8 mph - 0.01 in Snow Light Snow
12:38 AM 17.6 °F 9.3 °F 12.2 °F 79% 30.18 in 7.0 mi Variable 5.8 mph - 0.01 in Snow Light Snow
12:51 AM 18.0 °F 9.8 °F 12.0 °F 78% 30.19 in 7.0 mi NNE 5.8 mph - 0.01 in Snow Light Snow
1:51 AM 17.1 °F 6.6 °F 10.9 °F 77% 30.19 in 4.0 mi NNE 8.1 mph - 0.00 in Snow Light Snow
2:51 AM 18.0 °F 7.7 °F 10.9 °F 74% 30.21 in 9.0 mi NNE 8.1 mph - 0.00 in Snow Light Snow
3:51 AM 18.0 °F 9.8 °F 10.9 °F 74% 30.19 in 10.0 mi North 5.8 mph - 0.00 in   Overcast
4:51 AM 18.0 °F 9.8 °F 10.0 °F 71% 30.21 in 10.0 mi North 5.8 mph - N/A   Overcast
5:51 AM 18.0 °F 9.8 °F 10.0 °F 71% 30.24 in 10.0 mi Variable 5.8 mph - N/A   Overcast
6:51 AM 18.0 °F 12.7 °F 10.0 °F 71% 30.25 in 10.0 mi Variable 3.5 mph - N/A   Mostly Cloudy
7:51 AM 18.0 °F 12.7 °F 10.0 °F 71% 30.27 in 10.0 mi Variable 3.5 mph - N/A   Mostly Cloudy
8:51 AM 18.0 °F 7.7 °F 10.0 °F 71% 30.31 in 10.0 mi NNE 8.1 mph - N/A   Mostly Cloudy
9:51 AM 19.9 °F 11.1 °F 10.0 °F 65% 30.34 in 10.0 mi North 6.9 mph - N/A   Mostly Cloudy
10:51 AM 21.0 °F 10.6 °F 8.1 °F 57% 30.35 in 10.0 mi North 9.2 mph - N/A   Mostly Cloudy
11:51 AM 21.9 °F 14.5 °F 8.1 °F 55% 30.34 in 10.0 mi NW 5.8 mph - N/A   Mostly Cloudy
12:51 PM 25.0 °F 18.1 °F 7.0 °F 46% 30.32 in 10.0 mi NNW 5.8 mph - N/A   Mostly Cloudy
1:51 PM 27.0 °F 20.5 °F 3.9 °F 37% 30.30 in 10.0 mi Variable 5.8 mph - N/A   Mostly Cloudy
2:51 PM 27.0 °F 21.6 °F 1.9 °F 34% 30.30 in 10.0 mi Variable 4.6 mph - N/A   Mostly Cloudy
3:51 PM 27.0 °F 23.0 °F -0.0 °F 31% 30.31 in 10.0 mi Variable 3.5 mph - N/A   Mostly Cloudy
4:51 PM 26.1 °F - -0.9 °F 31% 30.32 in 10.0 mi Calm Calm - N/A   Mostly Cloudy
5:51 PM 25.0 °F - -2.9 °F 30% 30.33 in 10.0 mi Calm Calm - N/A   Mostly Cloudy
6:51 PM 25.0 °F - -2.0 °F 31% 30.35 in 10.0 mi Calm Calm - N/A   Mostly Cloudy
7:51 PM 24.1 °F - 1.9 °F 38% 30.35 in 10.0 mi Calm Calm - N/A   Mostly Cloudy
8:51 PM 21.9 °F - 3.0 °F 44% 30.35 in 10.0 mi Calm Calm - N/A   Mostly Cloudy
9:51 PM 21.0 °F - 6.1 °F 53% 30.37 in 10.0 mi Calm Calm - N/A   Mostly Cloudy
10:51 PM 17.1 °F - 3.9 °F 56% 30.38 in 10.0 mi Calm Calm - N/A   Partly Cloudy
11:51 PM 15.1 °F - 3.0 °F 59% 30.39 in 10.0 mi Calm Calm - N/A   Partly Cloudy